Orebro current weather conditions

sailwx.info

Wind from 210 at 9 knots

Air temperature 4.0° C
Visibility: greater than 5.4 NM
Dewpoint 3.0° C

Last reported at 2017-Jan-20 14:50 UTC.
Time now 2017-Jan-20 16:10 UTC

Location: N 59°13' E 015°02'.
View on Google Maps.

See reports from other nearby stations

  
Tides and Currents Weather Stations Pressure Air Temp Water Temp Dewpoint Dewpoint Depression Visibility Wind Speed Wind Dir Waves Ship Positions
date/time (UTC)wind fromknots sea level pressurealtimeterstation pressurevisibilityair tempwater tempwave heightnotes
2017-Jan-20 14:50 210 9 5.4 4.0
2017-Jan-20 14:20 210 7 5.4 6.0
2017-Jan-20 13:50 230 9 5.4 7.0
2017-Jan-20 13:20 230 9 5.4 7.0
2017-Jan-20 12:50 220 12 5.4 7.0
2017-Jan-20 12:20 250 8 5.4 7.0
2017-Jan-20 11:50 250 9 5.4 7.0
2017-Jan-20 11:20 250 12 5.4 8.0
2017-Jan-20 10:50 240 9 5.4 7.0
2017-Jan-20 10:20 230 11 5.4 6.0
2017-Jan-20 09:50 250 8 5.4 6.0
2017-Jan-20 09:20 250 7 5.4 6.0
2017-Jan-20 08:50 240 8 5.4 5.0
2017-Jan-20 08:20 230 11 5.4 4.0
2017-Jan-20 07:50 200 9 5.4 3.0
2017-Jan-20 07:20 210 8 5.4 4.0
2017-Jan-20 06:50 220 11 5.4 4.0
2017-Jan-20 06:20 240 11 5.4 4.0
2017-Jan-20 05:50 220 7 5.4 3.0
2017-Jan-20 05:20 230 9 5.4 4.0
2017-Jan-20 04:50 200 6 5.4 3.0
2017-Jan-20 04:20 210 8 5.4 3.0
2017-Jan-20 03:50 210 8 5.4 3.0
2017-Jan-20 03:20 220 9 5.4 3.0
2017-Jan-20 02:50 240 7 5.4 4.0
2017-Jan-20 02:20 240 12 5.4 4.0
2017-Jan-20 01:50 240 8 5.4 3.0
2017-Jan-20 01:20 240 9 5.4 3.0
2017-Jan-20 00:50 220 7 5.4 3.0
2017-Jan-20 00:20 240 7 5.4 3.0
2017-Jan-19 23:50 220 6 5.4 2.0
2017-Jan-19 23:20 220 6 5.4 2.0
2017-Jan-19 22:50 210 5 5.4 2.0
2017-Jan-19 22:20 220 6 5.4 3.0
2017-Jan-19 21:50 210 5 5.4 4.0
2017-Jan-19 21:20 240 6 5.4 4.0
2017-Jan-19 20:50 250 11 5.4 5.0
2017-Jan-19 20:20 230 8 5.4 5.0
2017-Jan-19 19:50 230 8 5.4 4.0
2017-Jan-19 19:20 230 8 5.4 5.0
2017-Jan-19 18:50 220 9 5.4 5.0
2017-Jan-19 18:20 230 7 5.4 4.0
2017-Jan-19 17:50 210 9 5.4 5.0
2017-Jan-19 17:20 210 8 5.4 5.0
2017-Jan-19 16:50 250 7 5.4 6.0
2017-Jan-19 16:20 250 12 5.4 6.0
2017-Jan-19 15:50 260 13 5.4 6.0
2017-Jan-19 15:20 250 14 5.4 6.0
2017-Jan-19 14:50 250 15 5.4 7.0
2017-Jan-19 14:20 250 14 5.4 7.0
2017-Jan-19 13:50 270 13 5.4 7.0
2017-Jan-19 13:20 260 18 5.4 7.0
2017-Jan-19 12:50 250 17 5.4 7.0
2017-Jan-19 12:20 250 17 5.4 7.0
2017-Jan-19 11:50 260 17 5.4 6.0
2017-Jan-19 11:20 240 17 5.4 7.0
2017-Jan-19 10:50 250 13 5.4 6.0
2017-Jan-19 10:20 220 13 5.4 5.0
2017-Jan-19 09:50 220 9 5.4 4.0
2017-Jan-19 09:20 240 11 5.4 4.0
2017-Jan-19 08:50 210 9 5.4 3.0
2017-Jan-19 08:20 200 8 5.4 3.0
2017-Jan-19 07:50 210 8 5.4 3.0
2017-Jan-19 07:20 220 8 5.4 4.0
2017-Jan-19 06:50 220 11 5.4 4.0
2017-Jan-19 06:20 240 11 5.4 4.0
2017-Jan-19 05:50 240 11 5.4 4.0
2017-Jan-19 05:20 230 7 5.4 4.0
2017-Jan-19 04:50 240 9 5.4 4.0
2017-Jan-19 04:20 220 13 5.4 4.0
2017-Jan-19 03:50 230 11 5.4 4.0
2017-Jan-19 03:20 240 9 5.4 4.0
2017-Jan-19 02:50 240 13 5.4 4.0
2017-Jan-19 02:20 250 13 5.4 4.0
2017-Jan-19 01:50 250 13 5.4 4.0
2017-Jan-19 01:20 250 9 5.4 5.0
2017-Jan-19 00:50 230 11 5.4 5.0
2017-Jan-19 00:20 250 11 5.4 5.0
2017-Jan-18 23:50 240 13 5.4 5.0
2017-Jan-18 23:20 250 12 5.4 5.0
2017-Jan-18 22:50 250 12 5.4 5.0
2017-Jan-18 22:20 250 9 5.4 5.0
2017-Jan-18 21:50 260 9 3.8 5.0 Mist.
2017-Jan-18 21:20 240 14 5.4 5.0
2017-Jan-18 20:50 240 13 5.4 5.0 Mist.
2017-Jan-18 20:20 250 13 4.3 5.0 Mist.
2017-Jan-18 19:50 230 13 4.3 5.0 Mist.
2017-Jan-18 19:20 250 13 4.9 6.0 Mist.
2017-Jan-18 18:50 240 13 gusting 27 3.8 6.0 Mist.
2017-Jan-18 18:20 240 13 4.9 6.0
2017-Jan-18 17:50 250 13 5.4 5.0
2017-Jan-18 17:20 240 13 3.8 5.0 Mist.
2017-Jan-18 16:50 250 12 3.8 5.0 Mist.
2017-Jan-18 16:20 240 12 gusting 21 2.7 5.0 Mist.